User: anonymous   Login
Location: Marlborough
(51.4223°N, 1.7415°W)
Time: 08:13:25
(UTC+01:00)
Language:

Tiangong - Orbit

View from above orbital plane
View from above orbital plane
View from above satellite
View from above satellite

Ground track
Ground track

The orbit data is extracted from the following two-line orbital elements,

1 48274U 21035A   24175.68641032  .00036763  00000-0  40391-3 0  9990
2 48274  41.4689  43.4839 0005039 268.2869  91.7393 15.62440125180111
Epoch (UTC): 23 June 2024 16:28:25
Eccentricity: 0.0005039
inclination: 41.4689°
perigee height: 377 km
apogee height: 384 km
right ascension of ascending node: 43.4839°
argument of perigee: 268.2869°
revolutions per day: 15.62440125
mean anomaly at epoch: 91.7393°
orbit number at epoch: 18011

The dashed part of the orbit path shows where the satellite is in the earth's shadow,  

DLR